User: anonymous   Login
Location: Spring Creek
(38.2870°N, 100.2160°W)
Time: 02:17:35
(UTC+00:00)
Language:

Cosmos 2184 Rocket - Orbit

View from above orbital plane
View from above orbital plane
View from above satellite
View from above satellite

Ground track
Ground track

The orbit data is extracted from the following two-line orbital elements,

1 21938U 92020B   21208.61441348  .00000065  00000-0  52168-4 0  9997
2 21938  82.9325 325.7611 0028353 325.3233  45.0374 13.75291443469361
Epoch (UTC): 27 July 2021 14:44:45
Eccentricity: 0.0028353
inclination: 82.9325°
perigee height: 960 km
apogee height: 1001 km
right ascension of ascending node: 325.7611°
argument of perigee: 325.3233°
revolutions per day: 13.75291443
mean anomaly at epoch: 45.0374°
orbit number at epoch: 46936

The dashed part of the orbit path shows where the satellite is in the earth's shadow,  

DLR